Terminal Aerodrome Forecast
Issued by NWS Charleston, WV

Current Version | Previous Version | Graphics & Text | Print | Product List | Glossary On
Versions: 1 2 3 4 5 6 7 8 9 10 11 12 13 14 15 16 17 18 19 20 21 22 23 24 25 26
000
FTUS41 KRLX 252335
TAFCRW
TAF
KCRW 252335Z 2600/2624 22004KT P6SM VCTS SCT040CB
     FM260300 22003KT P6SM SCT050
     FM260900 00000KT P6SM BKN040
     FM261800 00000KT 6SM SHRA VCTS OVC070CB=

USA.gov is the U.S. government's official web portal to all federal, state and local government web resources and services.